STARLINK-3102, 49151

Orbit data source: Space-Track

STARLINK-3102, 49151 is a payload satellite owned by SpaceX/Seattle (US) in LEO that was launched on Tue, 14 Sep 2021 UTC via an FALCON 9 launch vehicle from the Air Force Western Test Range (AFWTR). Payload-class satellites include a variety of spacecraft equipped with specific instruments for various scientific and technological missions. These include communications satellites like Starlink; space stations such as the ISS; scientific satellites like the Hubble; Earth observation satellites from companies like Planet Labs, Umbra, and HawkEye 360; GPS; miniature CubeSats for education and research; and military/defense satellites.

Loading next visibility...
Identifier
49151, 2021-082X
Orbit
LEO
Country
Flag of USUS
Related business
Manufacturer
SpaceX/Seattle
Mission
Operational Commercial Communications
Bus & Motor
STARLINK, Unknown motor
Mass
297 kg wet, ~275 kg dry
Launch date (UTC)
2021-09-14 (4 years ago)
Launch vehicle
FALCON 9
Launch site
Air Force Western Test Range (AFWTR)
Object type
Payload
Rocket body
Debris
Shape & HBR
Box + 1 Pan, 10.1 m
Radar Cross Section
13.562 m², Large (>1 m²)

Expand to show TLE details & history
Last TLE update: 10 hours ago

TLE from 10 hours ago
0 STARLINK-3102
1 49151U 21082X   25311.13798992  .00002581  00000-0  22390-3 0  9998
2 49151  69.9993 203.4423 0002795 267.4812  92.6027 14.98354558229807
Epoch: 2025-11-07T03:18Z
TLE epoch observation values (Epoch: 2025-11-07T03:18:42.329Z)
Latitude
-0.00001°
Longitude
107.17966°
Altitude
574.493 km
Speed
7.574 km/s
True Right ascension
13h 33m 46s
True Declination
0° 00' 00"
Sunlit
Object was in daylight at epoch
Visualization orbit readout
Latitude
Unknown
Longitude
Unknown
Altitude
Unknown
Speed
Unknown
Apparent Right ascension
Unknown
Apparent Declination
Unknown
Sunlit
N/A
Visualization observer readout
Local Sidereal Time
09:00:28
Azimuth
Unknown
Elevation
Unknown
Doppler factor
Unknown
Orbital elements
Apogee altitude
571.87 km
Perigee altitude
567.986 km
Semi-major axis
6,948.065 km
Eccentricity
0.00028
Inclination
69.9993°
RAAN
203.4423°
Arg. of periapsis
267.4812°
True anomaly
92.63469°
Mean anomaly
92.6027°
Eccentric anomaly
92.6187°
Mean motion
3.74755 °/min
Orbital period
96.06 mins
BSTAR
0.0002239
Loading maneuver chart data...
Computing Atmospheric mass density...
Loading historical data...
Loading historical data...
Loading historical data...
Loading historical data...
Loading historical data...
Loading historical data...
Loading historical data...

Documentation

Showing up to 5 results
|